• In Belarus
  • List of Countries
  • For 7 days
  • Water Temperature
  • Satellite Maps
  • Weather Map
  • Weather Widgets
  • user-avatar
    Login

    Hourly Weather La Paz

    Today, 16 January, Wednesday

    Time Temperature Precipitation Wind Pressure Humidity
    00:00 +19°C° 0 mm 3 mps 701 mmHg 93%
    01:00 +19°C° 0 mm 3 mps 701 mmHg 93%
    02:00 +19°C° 0 mm 3 mps 701 mmHg 92%
    03:00 +19°C° 0 mm 3 mps 700 mmHg 91%
    04:00 +19°C° 0 mm 3 mps 701 mmHg 92%
    05:00 +19°C° 0 mm 3 mps 701 mmHg 93%
    06:00 +18°C° 0 mm 2 mps 701 mmHg 93%
    07:00 +19°C° 0 mm 3 mps 701 mmHg 87%
    08:00 +20°C° 0 mm 3 mps 702 mmHg 81%
    09:00 +21°C° 0 mm 4 mps 702 mmHg 75%
    10:00 +23°C° 0 mm 4 mps 702 mmHg 68%
    11:00 +26°C° 0 mm 4 mps 702 mmHg 61%
    12:00 +28°C° 0 mm 4 mps 702 mmHg 53%
    13:00 +28°C° 0 mm 4 mps 701 mmHg 55%
    14:00 +28°C° 0 mm 4 mps 701 mmHg 57%
    15:00 +27°C° 0 mm 4 mps 700 mmHg 58%
    16:00 +26°C° 0 mm 4 mps 700 mmHg 67%
    17:00 +24°C° 0 mm 3 mps 700 mmHg 76%
    18:00 +21°C° 0 mm 3 mps 700 mmHg 85%
    19:00 +21°C° 0 mm 3 mps 700 mmHg 88%
    20:00 +20°C° 0 mm 3 mps 701 mmHg 91%
    21:00 +20°C° 0 mm 3 mps 701 mmHg 94%
    22:00 +20°C° 0 mm 3 mps 701 mmHg 93%
    23:00 +20°C° 0 mm 3 mps 701 mmHg 93%

    Tomorrow, 17 January, Thursday

    Time Temperature Precipitation Wind Pressure Humidity
    00:00 +20°C° 0 mm 3 mps 701 mmHg 92%
    01:00 +20°C° 0 mm 3 mps 701 mmHg 92%
    02:00 +20°C° 0 mm 3 mps 701 mmHg 92%
    03:00 +20°C° 0 mm 3 mps 700 mmHg 92%
    04:00 +20°C° 0 mm 3 mps 701 mmHg 93%
    05:00 +20°C° 0 mm 2 mps 701 mmHg 93%
    06:00 +19°C° 0 mm 2 mps 701 mmHg 94%
    07:00 +21°C° 0 mm 3 mps 701 mmHg 89%
    08:00 +22°C° 0 mm 3 mps 702 mmHg 83%
    09:00 +24°C° 0 mm 3 mps 702 mmHg 77%
    10:00 +25°C° 0 mm 4 mps 702 mmHg 74%
    11:00 +25°C° 0 mm 4 mps 702 mmHg 72%
    12:00 +26°C° 0 mm 4 mps 701 mmHg 70%
    13:00 +26°C° 0.1 mm 4 mps 701 mmHg 70%
    14:00 +26°C° 0.1 mm 4 mps 700 mmHg 71%
    15:00 +26°C° 0.1 mm 4 mps 699 mmHg 72%
    16:00 +25°C° 0.1 mm 3 mps 699 mmHg 78%
    17:00 +22°C° 0.1 mm 3 mps 700 mmHg 85%
    18:00 +21°C° 0.1 mm 3 mps 700 mmHg 91%
    19:00 +21°C° 0.1 mm 3 mps 700 mmHg 92%
    20:00 +20°C° 0.1 mm 3 mps 700 mmHg 93%
    21:00 +20°C° 0.1 mm 3 mps 701 mmHg 94%
    22:00 +20°C° 0 mm 3 mps 701 mmHg 94%
    23:00 +20°C° 0 mm 3 mps 701 mmHg 94%

    Day after tomorrow, 18 January, Friday

    Time Temperature Precipitation Wind Pressure Humidity
    00:00 +20°C° 0 mm 3 mps 701 mmHg 94%
    01:00 +20°C° 0 mm 2 mps 700 mmHg 94%
    02:00 +20°C° 0 mm 2 mps 700 mmHg 94%
    03:00 +20°C° 0 mm 2 mps 700 mmHg 94%
    04:00 +20°C° 0 mm 2 mps 700 mmHg 94%
    05:00 +20°C° 0 mm 2 mps 700 mmHg 94%
    06:00 +20°C° 0 mm 2 mps 700 mmHg 94%
    07:00 +21°C° 0 mm 2 mps 701 mmHg 90%
    08:00 +22°C° 0 mm 3 mps 701 mmHg 85%
    09:00 +24°C° 0 mm 3 mps 702 mmHg 80%
    10:00 +25°C° 0 mm 3 mps 702 mmHg 74%
    11:00 +26°C° 0 mm 3 mps 701 mmHg 68%
    12:00 +28°C° 0 mm 3 mps 701 mmHg 62%
    13:00 +28°C° 0.1 mm 3 mps 700 mmHg 61%
    14:00 +28°C° 0.1 mm 3 mps 699 mmHg 61%
    15:00 +28°C° 0.1 mm 3 mps 698 mmHg 60%
    16:00 +26°C° 0 mm 2 mps 698 mmHg 69%
    17:00 +24°C° 0 mm 2 mps 698 mmHg 78%
    18:00 +23°C° 0 mm 2 mps 698 mmHg 87%
    19:00 +21°C° 0 mm 2 mps 699 mmHg 90%
    20:00 +21°C° 0 mm 2 mps 699 mmHg 93%
    21:00 +20°C° 0 mm 2 mps 700 mmHg 96%
    22:00 +21°C° 0 mm 1 mps 700 mmHg 96%
    23:00 +21°C° 0 mm 1 mps 699 mmHg 96%

    19 January, Saturday

    Time Temperature Precipitation Wind Pressure Humidity
    00:00 +21°C° 0 mm 1 mps 699 mmHg 96%
    01:00 +21°C° 0 mm 1 mps 699 mmHg 95%
    02:00 +21°C° 0 mm 1 mps 699 mmHg 95%
    03:00 +21°C° 0 mm 1 mps 698 mmHg 95%
    04:00 +21°C° 0 mm 1 mps 699 mmHg 95%
    05:00 +20°C° 0 mm 1 mps 699 mmHg 95%
    06:00 +20°C° 0 mm 1 mps 699 mmHg 95%
    07:00 +22°C° 0 mm 1 mps 699 mmHg 84%
    08:00 +24°C° 0 mm 1 mps 700 mmHg 73%
    09:00 +25°C° 0 mm 1 mps 701 mmHg 62%
    10:00 +28°C° 0 mm 1 mps 701 mmHg 53%
    11:00 +30°C° 0 mm 1 mps 700 mmHg 44%
    12:00 +33°C° 0 mm 1 mps 700 mmHg 35%
    13:00 +33°C° 0 mm 1 mps 699 mmHg 34%
    14:00 +33°C° 0 mm 1 mps 698 mmHg 33%
    15:00 +33°C° 0 mm 1 mps 698 mmHg 32%
    16:00 +31°C° 0 mm 1 mps 698 mmHg 40%
    17:00 +28°C° 0 mm 1 mps 698 mmHg 48%
    18:00 +25°C° 0 mm 1 mps 697 mmHg 56%
    19:00 +24°C° 0 mm 1 mps 698 mmHg 63%
    20:00 +23°C° 0 mm 1 mps 699 mmHg 71%
    21:00 +21°C° 0 mm 1 mps 699 mmHg 78%
    22:00 +21°C° 0 mm 1 mps 699 mmHg 82%
    23:00 +20°C° 0 mm 1 mps 699 mmHg 86%

    20 January, Sunday

    Time Temperature Precipitation Wind Pressure Humidity
    00:00 +20°C° 0 mm 1 mps 699 mmHg 90%
    01:00 +20°C° 0 mm 1 mps 699 mmHg 92%
    02:00 +19°C° 0 mm 2 mps 699 mmHg 93%
    03:00 +19°C° 0 mm 2 mps 699 mmHg 95%
    04:00 +20°C° 0 mm 2 mps 699 mmHg 94%
    05:00 +20°C° 0 mm 2 mps 700 mmHg 94%
    06:00 +20°C° 0 mm 3 mps 700 mmHg 94%
    07:00 +21°C° 0.1 mm 3 mps 701 mmHg 89%
    08:00 +22°C° 0.1 mm 4 mps 701 mmHg 84%
    09:00 +23°C° 0.1 mm 5 mps 702 mmHg 80%
    10:00 +23°C° 0.1 mm 5 mps 702 mmHg 78%
    11:00 +23°C° 0.1 mm 5 mps 701 mmHg 76%
    12:00 +24°C° 0.1 mm 6 mps 701 mmHg 74%
    13:00 +24°C° 0.1 mm 6 mps 700 mmHg 74%
    14:00 +24°C° 0.1 mm 6 mps 700 mmHg 75%
    15:00 +23°C° 0.1 mm 6 mps 699 mmHg 75%
    16:00 +22°C° 0.1 mm 5 mps 699 mmHg 80%
    17:00 +21°C° 0.1 mm 5 mps 700 mmHg 85%
    18:00 +20°C° 0.1 mm 5 mps 700 mmHg 89%
    19:00 +20°C° 0.2 mm 5 mps 700 mmHg 89%
    20:00 +19°C° 0.2 mm 5 mps 701 mmHg 89%
    21:00 +19°C° 0.2 mm 5 mps 701 mmHg 89%
    22:00 +19°C° 0 mm 5 mps 701 mmHg 89%
    23:00 +17°C° 0 mm 5 mps 701 mmHg 90%

    21 January, Monday

    Time Temperature Precipitation Wind Pressure Humidity
    00:00 +17°C° 0 mm 6 mps 701 mmHg 91%
    01:00 +17°C° 0 mm 5 mps 701 mmHg 90%
    02:00 +17°C° 0 mm 5 mps 700 mmHg 90%
    03:00 +17°C° 0 mm 4 mps 700 mmHg 90%
    04:00 +17°C° 0 mm 4 mps 700 mmHg 89%
    05:00 +17°C° 0 mm 4 mps 700 mmHg 89%
    06:00 +17°C° 0 mm 4 mps 701 mmHg 89%
    07:00 +18°C° 0 mm 4 mps 701 mmHg 86%
    08:00 +17°C° 0 mm 5 mps 702 mmHg 84%
    09:00 +19°C° 0 mm 5 mps 702 mmHg 81%
    10:00 +20°C° 0 mm 5 mps 702 mmHg 75%
    11:00 +21°C° 0 mm 5 mps 702 mmHg 69%
    12:00 +23°C° 0 mm 5 mps 702 mmHg 63%
    13:00 +23°C° 0 mm 4 mps 701 mmHg 62%
    14:00 +23°C° 0 mm 4 mps 700 mmHg 61%
    15:00 +23°C° 0 mm 4 mps 700 mmHg 60%
    16:00 +21°C° 0 mm 4 mps 700 mmHg 68%
    17:00 +20°C° 0 mm 3 mps 699 mmHg 77%
    18:00 +18°C° 0 mm 3 mps 699 mmHg 85%
    19:00 +17°C° 0 mm 3 mps 700 mmHg 88%
    20:00 +17°C° 0 mm 2 mps 700 mmHg 91%
    21:00 +16°C° 0 mm 2 mps 700 mmHg 94%
    22:00 +16°C° 0 mm 2 mps 700 mmHg 94%
    23:00 +16°C° 0 mm 2 mps 700 mmHg 93%
    Show more